TimeCST,TemperatureF,Dew PointF,Humidity,Sea Level PressureIn,VisibilityMPH,Wind Direction,Wind SpeedMPH,Gust SpeedMPH,PrecipitationIn,Events,Conditions,WindDirDegrees,DateUTC
12:56 AM,48.0,45.0,89,30.27,8.0,SE,3.5,-,N/A,,Mostly Cloudy,130,2013-01-25 06:56:00
1:56 AM,50.0,46.0,86,30.26,9.0,ESE,4.6,-,N/A,,Mostly Cloudy,110,2013-01-25 07:56:00
2:56 AM,51.1,46.9,86,30.26,8.0,ESE,4.6,-,N/A,,Mostly Cloudy,120,2013-01-25 08:56:00
3:56 AM,50.0,46.9,89,30.26,7.0,ESE,5.8,-,N/A,,Overcast,110,2013-01-25 09:56:00
4:56 AM,51.1,46.0,83,30.27,8.0,East,5.8,-,N/A,,Overcast,100,2013-01-25 10:56:00
5:29 AM,51.8,44.6,76,30.28,8.0,Variable,3.5,-,N/A,,Overcast,0,2013-01-25 11:29:00
5:44 AM,51.8,44.6,76,30.28,9.0,Variable,5.8,-,N/A,,Overcast,0,2013-01-25 11:44:00
5:56 AM,51.1,42.1,71,30.28,10.0,SE,6.9,-,N/A,,Overcast,130,2013-01-25 11:56:00
6:56 AM,50.0,39.9,68,30.27,10.0,SE,4.6,-,N/A,,Overcast,140,2013-01-25 12:56:00
7:56 AM,51.1,39.9,66,30.27,10.0,SE,5.8,-,N/A,,Partly Cloudy,130,2013-01-25 13:56:00
8:56 AM,55.0,42.1,62,30.25,10.0,SSE,11.5,16.1,N/A,,Clear,160,2013-01-25 14:56:00
9:56 AM,61.0,46.9,60,30.25,10.0,South,9.2,-,N/A,,Clear,180,2013-01-25 15:56:00
10:56 AM,64.9,51.1,61,30.23,10.0,SSW,12.7,19.6,N/A,,Clear,210,2013-01-25 16:56:00
11:56 AM,66.0,51.1,59,30.20,10.0,WSW,11.5,16.1,N/A,,Partly Cloudy,250,2013-01-25 17:56:00
12:56 PM,66.9,50.0,54,30.19,10.0,SW,10.4,-,N/A,,Mostly Cloudy,230,2013-01-25 18:56:00
1:56 PM,70.0,50.0,49,30.15,10.0,SSW,15.0,21.9,N/A,,Mostly Cloudy,210,2013-01-25 19:56:00
2:56 PM,69.1,51.1,53,30.13,10.0,SSW,12.7,21.9,N/A,,Clear,210,2013-01-25 20:56:00
3:56 PM,68.0,51.1,55,30.12,10.0,SSW,9.2,17.3,N/A,,Clear,200,2013-01-25 21:56:00
4:56 PM,66.9,51.1,57,30.13,10.0,SW,6.9,-,N/A,,Clear,220,2013-01-25 22:56:00
5:56 PM,64.9,51.1,61,30.14,10.0,SSW,6.9,-,N/A,,Scattered Clouds,210,2013-01-25 23:56:00
6:56 PM,62.1,51.1,67,30.15,10.0,SSW,9.2,-,N/A,,Clear,210,2013-01-26 00:56:00
7:56 PM,61.0,51.1,70,30.14,10.0,SSW,9.2,-,N/A,,Clear,210,2013-01-26 01:56:00
8:56 PM,61.0,52.0,72,30.15,10.0,SW,9.2,-,N/A,,Clear,220,2013-01-26 02:56:00
9:56 PM,59.0,52.0,78,30.16,10.0,SW,6.9,-,N/A,,Clear,220,2013-01-26 03:56:00
10:56 PM,59.0,52.0,78,30.15,10.0,SSW,5.8,-,N/A,,Clear,210,2013-01-26 04:56:00
11:56 PM,57.9,53.1,84,30.16,10.0,SW,5.8,-,N/A,,Mostly Cloudy,220,2013-01-26 05:56:00